Meteo pe oră la Dziadkowo

Astăzi, 29 Septembrie, Marţi

Timp Temperatura Precipitaţii Vânt Presiune Umiditate
00:00 +12°C° 0.1 mm 1 m/s 745 mmHg 91%
01:00 +12°C° 0 mm 1 m/s 744 mmHg 95%
02:00 +12°C° 0.7 mm 2 m/s 744 mmHg 95%
03:00 +12°C° 0.7 mm 2 m/s 744 mmHg 95%
04:00 +11°C° 0.7 mm 3 m/s 744 mmHg 95%
05:00 +11°C° 0.2 mm 3 m/s 744 mmHg 94%
06:00 +11°C° 0.2 mm 3 m/s 744 mmHg 93%
07:00 +12°C° 0 mm 2 m/s 744 mmHg 89%
08:00 +13°C° 0 mm 2 m/s 745 mmHg 87%
09:00 +13°C° 0 mm 2 m/s 745 mmHg 84%
10:00 +13°C° 0 mm 3 m/s 745 mmHg 81%
11:00 +13°C° 0 mm 3 m/s 745 mmHg 80%
12:00 +14°C° 0 mm 3 m/s 746 mmHg 78%
13:00 +14°C° 0 mm 3 m/s 746 mmHg 77%
14:00 +15°C° 0 mm 2 m/s 746 mmHg 77%
15:00 +15°C° 0 mm 2 m/s 746 mmHg 78%
16:00 +14°C° 0 mm 2 m/s 745 mmHg 79%
17:00 +14°C° 0 mm 2 m/s 746 mmHg 81%
18:00 +14°C° 0 mm 2 m/s 746 mmHg 82%
19:00 +13°C° 0 mm 2 m/s 746 mmHg 84%
20:00 +13°C° 0 mm 2 m/s 746 mmHg 84%
21:00 +13°C° 0 mm 2 m/s 746 mmHg 84%
22:00 +13°C° 0 mm 1 m/s 746 mmHg 84%
23:00 +13°C° 0 mm 2 m/s 746 mmHg 85%

Mâine, 30 Septembrie, Miercuri

Timp Temperatura Precipitaţii Vânt Presiune Umiditate
00:00 +13°C° 0 mm 2 m/s 747 mmHg 85%
01:00 +13°C° 0 mm 2 m/s 747 mmHg 86%
02:00 +13°C° 0 mm 2 m/s 746 mmHg 87%
03:00 +13°C° 0 mm 2 m/s 746 mmHg 87%
04:00 +12°C° 0 mm 2 m/s 746 mmHg 88%
05:00 +13°C° 0 mm 2 m/s 746 mmHg 88%
06:00 +13°C° 0 mm 2 m/s 746 mmHg 89%
07:00 +13°C° 0 mm 2 m/s 746 mmHg 89%
08:00 +14°C° 0 mm 2 m/s 746 mmHg 83%
09:00 +14°C° 0 mm 3 m/s 746 mmHg 77%
10:00 +17°C° 0 mm 3 m/s 746 mmHg 72%
11:00 +17°C° 0 mm 4 m/s 746 mmHg 67%
12:00 +18°C° 0 mm 4 m/s 745 mmHg 62%
13:00 +19°C° 0 mm 4 m/s 745 mmHg 58%
14:00 +19°C° 0 mm 4 m/s 745 mmHg 59%
15:00 +18°C° 0 mm 4 m/s 744 mmHg 60%
16:00 +18°C° 0 mm 4 m/s 744 mmHg 61%
17:00 +17°C° 0 mm 4 m/s 744 mmHg 65%
18:00 +16°C° 0 mm 3 m/s 744 mmHg 68%
19:00 +14°C° 0 mm 3 m/s 744 mmHg 72%
20:00 +13°C° 0 mm 3 m/s 744 mmHg 74%
21:00 +13°C° 0 mm 3 m/s 744 mmHg 76%
22:00 +12°C° 0 mm 3 m/s 743 mmHg 78%
23:00 +12°C° 0 mm 3 m/s 743 mmHg 80%

Poimâine, 1 Octombrie, Joi

Timp Temperatura Precipitaţii Vânt Presiune Umiditate
00:00 +12°C° 0 mm 3 m/s 743 mmHg 83%
01:00 +12°C° 0 mm 2 m/s 743 mmHg 85%
02:00 +12°C° 0 mm 2 m/s 742 mmHg 86%
03:00 +13°C° 0 mm 2 m/s 742 mmHg 87%
04:00 +13°C° 0 mm 2 m/s 742 mmHg 87%
05:00 +13°C° 0 mm 2 m/s 741 mmHg 88%
06:00 +13°C° 0 mm 2 m/s 741 mmHg 88%
07:00 +13°C° 0 mm 2 m/s 741 mmHg 89%
08:00 +14°C° 0 mm 2 m/s 741 mmHg 83%
09:00 +15°C° 0 mm 2 m/s 741 mmHg 78%
10:00 +16°C° 0 mm 2 m/s 741 mmHg 73%
11:00 +17°C° 0 mm 2 m/s 740 mmHg 69%
12:00 +17°C° 0 mm 2 m/s 740 mmHg 66%
13:00 +18°C° 0 mm 2 m/s 740 mmHg 62%
14:00 +18°C° 0 mm 2 m/s 739 mmHg 63%
15:00 +17°C° 0 mm 2 m/s 739 mmHg 64%
16:00 +17°C° 0 mm 2 m/s 739 mmHg 65%
17:00 +16°C° 0 mm 2 m/s 739 mmHg 68%
18:00 +14°C° 0 mm 3 m/s 739 mmHg 70%
19:00 +14°C° 0 mm 3 m/s 740 mmHg 72%
20:00 +13°C° 0 mm 3 m/s 740 mmHg 75%
21:00 +13°C° 0 mm 3 m/s 739 mmHg 78%
22:00 +13°C° 0 mm 2 m/s 739 mmHg 81%
23:00 +13°C° 0 mm 2 m/s 739 mmHg 82%

2 Octombrie, Vineri

Timp Temperatura Precipitaţii Vânt Presiune Umiditate
00:00 +13°C° 0 mm 2 m/s 739 mmHg 84%
01:00 +13°C° 0 mm 2 m/s 739 mmHg 85%
02:00 +12°C° 0 mm 2 m/s 739 mmHg 88%
03:00 +12°C° 0 mm 2 m/s 739 mmHg 90%
04:00 +10°C° 0 mm 2 m/s 739 mmHg 93%
05:00 +10°C° 0 mm 2 m/s 739 mmHg 93%
06:00 +12°C° 0 mm 2 m/s 739 mmHg 93%
07:00 +12°C° 0 mm 2 m/s 740 mmHg 93%
08:00 +13°C° 0 mm 2 m/s 740 mmHg 87%
09:00 +14°C° 0 mm 2 m/s 740 mmHg 81%
10:00 +16°C° 0 mm 3 m/s 740 mmHg 75%
11:00 +16°C° 0 mm 3 m/s 739 mmHg 73%
12:00 +16°C° 0 mm 3 m/s 739 mmHg 72%
13:00 +17°C° 0 mm 4 m/s 739 mmHg 70%
14:00 +15°C° 0 mm 4 m/s 739 mmHg 70%
15:00 +15°C° 0 mm 4 m/s 739 mmHg 70%
16:00 +15°C° 0 mm 4 m/s 739 mmHg 70%
17:00 +14°C° 0 mm 4 m/s 739 mmHg 75%
18:00 +13°C° 0 mm 4 m/s 739 mmHg 79%
19:00 +12°C° 0 mm 4 m/s 739 mmHg 83%
20:00 +13°C° 0 mm 4 m/s 739 mmHg 82%
21:00 +13°C° 0 mm 5 m/s 738 mmHg 81%
22:00 +13°C° 0 mm 5 m/s 738 mmHg 80%
23:00 +13°C° 0 mm 6 m/s 738 mmHg 79%

3 Octombrie, Sâmbătă

Timp Temperatura Precipitaţii Vânt Presiune Umiditate
00:00 +14°C° 0 mm 6 m/s 737 mmHg 79%
01:00 +14°C° 0 mm 6 m/s 737 mmHg 78%
02:00 +14°C° 0 mm 6 m/s 737 mmHg 78%
03:00 +14°C° 0 mm 6 m/s 736 mmHg 78%
04:00 +14°C° 0 mm 6 m/s 736 mmHg 77%
05:00 +14°C° 0 mm 6 m/s 736 mmHg 78%
06:00 +14°C° 0 mm 6 m/s 736 mmHg 80%
07:00 +14°C° 0 mm 6 m/s 736 mmHg 81%
08:00 +16°C° 0 mm 6 m/s 735 mmHg 74%
09:00 +17°C° 0 mm 6 m/s 735 mmHg 67%
10:00 +20°C° 0 mm 7 m/s 735 mmHg 61%
11:00 +21°C° 0 mm 7 m/s 735 mmHg 58%
12:00 +22°C° 0 mm 6 m/s 735 mmHg 56%
13:00 +23°C° 0 mm 6 m/s 735 mmHg 53%
14:00 +23°C° 0 mm 6 m/s 735 mmHg 55%
15:00 +23°C° 0 mm 5 m/s 734 mmHg 57%
16:00 +22°C° 0 mm 5 m/s 734 mmHg 60%
17:00 +22°C° 0 mm 6 m/s 734 mmHg 60%
18:00 +21°C° 0 mm 6 m/s 734 mmHg 60%
19:00 +21°C° 0 mm 7 m/s 734 mmHg 60%
20:00 +21°C° 0 mm 7 m/s 734 mmHg 61%
21:00 +20°C° 0 mm 7 m/s 733 mmHg 61%
22:00 +20°C° 0 mm 7 m/s 733 mmHg 62%
23:00 +20°C° 0 mm 7 m/s 732 mmHg 62%

4 Octombrie, Duminică

Timp Temperatura Precipitaţii Vânt Presiune Umiditate
00:00 +20°C° 0 mm 7 m/s 732 mmHg 62%
01:00 +20°C° 0 mm 7 m/s 732 mmHg 62%
02:00 +20°C° 0 mm 6 m/s 732 mmHg 62%
03:00 +20°C° 0 mm 5 m/s 732 mmHg 62%
04:00 +20°C° 0 mm 5 m/s 732 mmHg 62%
05:00 +20°C° 0 mm 5 m/s 732 mmHg 64%
06:00 +20°C° 0 mm 5 m/s 733 mmHg 66%
07:00 +20°C° 0 mm 5 m/s 733 mmHg 68%
08:00 +20°C° 0 mm 5 m/s 734 mmHg 65%
09:00 +21°C° 0 mm 5 m/s 734 mmHg 62%
10:00 +21°C° 0 mm 6 m/s 734 mmHg 59%
11:00 +21°C° 0 mm 6 m/s 735 mmHg 58%
12:00 +21°C° 0 mm 6 m/s 736 mmHg 57%
13:00 +21°C° 0 mm 6 m/s 736 mmHg 56%
14:00 +20°C° 0 mm 5 m/s 737 mmHg 59%
15:00 +19°C° 0 mm 4 m/s 737 mmHg 63%
16:00 +18°C° 0 mm 3 m/s 738 mmHg 67%
17:00 +17°C° 0 mm 2 m/s 738 mmHg 71%
18:00 +16°C° 0 mm 1 m/s 739 mmHg 76%
19:00 +15°C° 0 mm 1 m/s 739 mmHg 80%
20:00 +14°C° 0 mm 1 m/s 739 mmHg 82%
21:00 +14°C° 0 mm 2 m/s 739 mmHg 83%
22:00 +13°C° 0 mm 3 m/s 739 mmHg 84%
23:00 +13°C° 0 mm 3 m/s 739 mmHg 84%
Arată mai mult

We Need Your Consent

Meteoprog and our Service Providers may store and access personal data such as cookies, device identifiers or other similar technologies on your device and process such data to personalise content and ads, as well as provide social media features and to analyse the traffic.

  • Store and/or access information on your device

    Cookies, device identifiers or other information can be stored or accessed on your device for the purposes indicated above.

  • Personalised ads and content, ad and content measurement, audience insights, and products development

    Ads and content can be personalised based on a profile. More data can be added to better personalise ads and content. Ad and content performance can be measured. Insights about the audience who saw the ads and content can be derived. Such data can be used to develop or improve user’s experience, systems and software.

By clicking ‘I Agree’ you will allow the use of indicated cookies, device identifiers, web beacons or other similar technologies. Your settings can be changed in the browser on your device.

For certain purposes, legitimate interests may be relied on, rather than consent. You can read more about this in our Privacy and Cookie Policy.